Weather in Salair

Russia / Kemerovo Oblast     54°14′06″N   85°48′10″E
temp.,
°C
wind,
m/s
gust,
m/s
humid.,
%
clouds,
%
prec.,
mm/h
press.,
hPa
HPBL,
m
26 january, tue
tue2601:00−30s1198100 0.1 104341
04:00−30s019898 0.1 104122
07:00−30ene119997 0.1 104119
10:00−31e1110088 0.0 104119
13:00−25ene119687 0.1 1041153
16:00−24ene1198100 0.0 1041129
19:00−28sse1210099 0.0 104119
22:00−26s229990 0.0 104027
27 january, wed
wed2701:00−21s399695 0.0 1038241
04:00−17ssw51294100 0.2 1035467
07:00−14ssw71591100 0.6 1032736
10:00−13ssw81690100 0.3 1030707
13:00−10sw91791100 1.0 1028679
16:00−8sw91791100 0.8 1027780
19:00−7sw81690100 1.2 1027851
22:00−6wsw81590100 0.5 1027897
28 january, thu
thu2801:00−7wsw71490100 0.8 1028798
04:00−7wsw71392100 0.6 1030776
07:00−8sw61292100 1.1 1030645
10:00−8sw61291100 0.2 1031653
13:00−7sw71390100 0.4 1030689
16:00−7sw71490100 0.2 1029699
19:00−8sw91789100 0.3 1028696
22:00−8sw91889100 0.2 1026683
29 january, fri
fri2901:00−7sw101989100 0.4 1023745
04:00−7sw112089100 0.4 1020788
07:00−6wsw91891100 2.0 10201096
10:00−7wsw71490100 0.6 1022776
13:00−6wsw71391100 0.8 1024795
16:00−5wsw71390100 0.3 1024877
19:00−6wsw71490100 0.5 1025826
22:00−7wsw61391100 0.3 1025826
30 january, sat
sat3001:00−7wsw61291100 0.5 1027682
04:00−8wnw3994100 0.3 1030506
07:00−18nne2299100 0.9 103294
10:00−20ne2299100 0.3 1034100
13:00−18ne2297100 0.4 1035137
16:00−19ne2297100 0.1 1034124
19:00−20ne2299100 0.4 103473
22:00−19ene1199100 0.3 103344